Wetbulb
72.55 73.96 73.70 69.04 61.09 62.12 56.25 56.78 61.64 59.43 60.17 62.89 64.44 63.43 61.39 62.02 59.78 55.73 70.06 71.61 71.94 71.31 72.62 72.44 72.78 72.81 73.01 72.66 72.74 72.83 72.47 72.17 71.89 71.68 71.39 71.28 71.23 71.08 70.95 71.07 71.44 71.97 73.03 73.68 73.83 73.67 73.86 73.94 74.04
73.23 70.02 69.43 67.07 58.07 54.74 54.88 59.95 59.27 62.01 62.76 64.53 65.06 63.73 62.12 58.21 62.52 66.10 68.24 71.78 72.27 71.38 72.02 72.07 72.79 72.82 72.57 72.42 72.10 72.03 71.87 71.54 71.16 70.64 70.13 70.60 70.62 70.51 70.55 70.50 70.63 70.84 71.06 71.73 72.58 72.90 73.00 72.90 73.04
70.81 70.06 65.87 64.05 59.53 54.36 54.80 59.48 61.02 63.11 64.50 63.72 63.11 65.45 63.17 58.84 65.27 67.42 70.94 71.83 71.81 71.99 72.04 72.23 71.08 70.67 70.30 69.74 69.32 68.89 68.66 68.77 69.26 69.24 70.64 70.42 70.25 70.30 70.38 70.47 70.48 70.53 70.68 70.69 70.49 70.35 70.94 71.66 71.69
69.17 67.93 67.31 58.21 55.87 58.99 60.11 61.32 62.73 62.67 63.98 64.64 64.96 61.38 65.41 67.74 67.04 69.39 70.97 71.10 70.76 69.68 69.80 70.22 69.63 69.48 69.17 68.90 68.55 68.26 68.07 68.07 68.37 68.84 68.25 68.22 68.92 68.91 69.61 70.04 70.12 70.27 70.15 70.24 70.37 70.14 69.49 69.32 69.85
68.91 65.78 59.67 57.40 57.60 60.03 61.79 61.50 62.68 61.61 62.37 63.15 63.76 61.02 62.08 67.42 70.39 70.03 70.04 69.57 69.18 69.54 69.85 69.26 69.10 68.66 68.65 68.79 68.21 68.34 68.44 67.68 68.07 67.13 67.29 67.12 67.16 67.26 67.42 68.07 68.93 69.57 69.79 70.13 69.87 69.60 69.77 69.77 68.67
63.52 64.59 55.79 55.06 56.99 59.90 61.81 63.66 63.06 62.13 62.63 63.22 63.26 62.21 62.78 68.90 68.71 68.69 68.79 67.47 67.13 66.16 67.10 67.65 67.56 67.62 67.54 67.30 66.82 66.44 66.91 67.04 66.40 65.76 66.56 66.39 66.09 66.34 65.90 66.06 65.78 66.71 67.00 67.71 68.48 68.97 69.15 69.29 69.34
61.64 61.65 57.44 57.48 56.78 57.75 60.84 64.22 62.23 61.96 61.94 62.19 64.71 60.94 64.25 65.50 68.20 68.44 67.22 65.93 65.62 65.18 65.28 65.44 65.57 66.11 66.46 65.57 65.31 65.12 65.43 65.44 65.64 65.93 65.53 64.86 64.24 64.25 64.22 64.15 64.22 64.03 64.40 64.55 65.74 66.93 67.96 68.91 68.90
66.30 61.76 57.35 57.50 55.59 56.44 62.14 63.24 63.77 62.73 61.55 66.18 66.60 60.80 60.24 64.26 67.50 66.51 65.54 65.13 65.18 65.28 64.97 64.96 65.88 65.67 65.37 65.01 63.98 63.91 64.24 64.47 64.75 63.89 63.22 62.36 61.99 61.35 61.40 62.57 62.88 62.56 62.52 63.20 62.89 64.13 65.46 65.81 68.27
65.17 58.82 55.28 55.88 56.35 59.80 63.72 61.77 63.67 65.40 63.63 63.91 64.91 65.13 66.13 65.59 66.29 64.60 63.38 62.87 62.08 62.88 64.55 65.46 65.12 64.37 63.59 62.43 62.82 62.38 61.82 61.85 62.19 63.18 60.85 62.35 62.99 62.74 61.99 60.66 60.78 61.19 61.31 61.68 61.56 61.85 62.74 64.34 65.67
62.33 58.41 56.94 60.45 61.12 61.13 63.06 62.80 63.03 62.67 62.34 61.54 63.16 66.21 66.10 65.49 62.60 60.11 58.28 59.54 62.40 63.15 63.92 64.29 62.94 62.60 62.22 61.39 62.73 62.63 62.56 63.10 63.02 62.88 62.67 62.50 62.22 61.69 60.18 60.21 59.06 59.70 59.47 60.03 60.09 60.58 61.06 63.00 66.02
63.04 58.62 61.12 61.57 63.33 64.14 62.92 62.65 63.90 61.92 60.06 61.69 61.42 63.70 64.27 63.30 59.33 58.93 60.22 60.81 60.09 62.26 62.91 62.13 62.49 62.93 61.54 61.17 61.31 61.83 63.20 63.41 62.65 62.01 61.81 62.14 61.31 61.37 61.03 60.78 60.54 60.96 59.61 60.24 59.99 60.08 60.71 62.14 63.72
60.60 62.40 62.89 63.19 63.85 63.61 62.31 64.07 60.93 61.51 60.58 63.88 64.82 65.14 63.83 61.02 59.43 58.71 57.92 58.56 59.77 60.94 62.03 61.27 61.81 61.45 61.93 60.83 60.56 61.14 61.52 62.38 62.19 61.56 61.40 61.06 60.19 60.29 60.01 60.08 60.26 60.82 60.73 60.77 60.60 60.08 60.37 60.70 61.51
62.29 62.60 63.66 64.09 63.83 63.35 63.32 61.05 59.98 58.33 62.58 64.38 64.77 63.26 59.35 57.40 57.99 58.19 58.07 58.79 59.07 60.59 61.96 61.06 62.09 62.03 61.55 60.86 60.12 60.85 61.09 61.02 60.77 61.29 60.96 60.53 59.80 59.69 60.13 60.07 60.31 60.40 60.62 60.42 60.34 60.51 60.55 60.15 60.34
63.79 63.51 62.81 63.16 62.64 62.32 60.93 60.49 61.15 58.29 62.19 62.16 61.14 58.42 57.52 58.48 57.09 57.32 57.53 57.94 59.69 62.32 61.12 60.38 60.81 61.90 62.32 61.41 61.05 60.60 61.36 61.91 61.69 61.21 60.36 60.22 59.75 60.11 59.87 59.98 59.89 60.17 60.43 60.89 60.78 60.57 60.34 60.09 60.09
63.79 60.75 61.87 61.62 61.59 60.65 62.08 57.72 55.61 58.42 59.55 57.58 57.97 58.14 57.31 57.13 57.97 57.89 58.28 59.01 61.58 63.63 62.38 59.83 59.03 61.02 62.02 61.37 60.69 60.35 60.61 60.57 60.83 60.85 61.60 59.65 60.18 60.55 60.61 59.87 59.87 60.01 60.66 60.98 60.96 60.85 60.86 60.04 60.05
60.12 60.70 56.87 59.90 61.06 60.60 60.90 54.31 56.45 60.07 60.46 59.39 58.85 57.95 56.74 57.55 58.34 59.51 59.72 62.05 64.21 64.21 61.85 60.54 60.76 60.64 60.73 61.30 60.94 60.59 61.03 60.71 60.83 61.12 60.80 60.45 60.25 60.42 60.60 59.93 59.75 60.55 60.48 60.10 60.13 60.20 59.71 59.72 59.49
58.20 53.17 54.54 56.12 60.23 59.90 59.40 54.83 58.65 61.07 60.04 59.01 59.74 58.57 57.53 57.35 59.93 62.42 62.58 63.74 64.69 64.79 62.60 59.93 59.44 59.85 60.34 61.17 61.24 61.48 61.51 61.01 60.68 60.50 60.23 60.06 60.32 60.31 60.47 59.75 60.09 61.01 59.69 59.83 59.97 59.94 59.75 58.94 59.13
51.89 52.90 54.73 54.73 57.69 58.59 56.44 54.81 58.12 59.77 59.15 58.78 59.33 58.91 59.35 58.61 60.38 63.18 63.62 63.90 64.60 63.73 59.62 60.57 61.53 61.12 61.20 61.91 61.63 60.86 60.96 61.35 61.89 61.01 60.89 60.65 60.82 60.42 60.55 59.94 60.40 60.60 59.05 59.66 59.95 58.65 59.26 58.85 58.79
55.93 54.04 53.04 56.35 57.95 57.04 55.83 55.23 56.61 58.79 58.02 58.26 59.44 59.61 57.60 58.04 61.78 63.17 63.31 63.56 60.61 59.22 58.53 60.50 62.82 62.40 61.61 60.51 59.25 58.34 58.10 59.92 60.32 60.42 60.34 60.91 60.63 60.62 60.78 59.60 59.59 60.14 59.10 59.65 59.24 59.58 58.51 58.13 58.79
55.97 53.82 54.17 55.48 56.88 57.04 55.51 53.99 55.47 57.92 57.62 58.05 59.09 59.55 57.75 59.95 60.71 62.00 63.02 62.20 60.43 61.17 59.95 62.76 63.61 63.11 62.33 61.07 60.33 59.85 59.51 59.69 60.32 60.85 61.07 60.81 60.31 60.30 59.99 60.07 59.54 60.10 59.15 59.97 60.18 59.78 57.87 57.98 58.77
55.52 54.02 54.77 54.13 55.93 56.88 55.13 52.99 53.73 56.65 57.75 58.34 59.13 60.28 60.92 60.37 60.19 61.24 62.16 63.31 64.09 60.65 61.81 64.70 64.37 63.89 62.51 61.10 60.65 60.29 60.47 60.29 58.17 59.07 58.52 60.24 59.85 59.98 60.37 60.72 60.06 59.53 59.94 58.79 60.41 60.02 58.96 56.08 57.45
52.53 56.85 55.41 54.91 53.93 50.52 55.14 47.13 52.28 54.38 54.88 56.43 57.40 58.08 60.09 60.60 61.07 61.35 61.96 63.06 63.75 63.70 64.44 65.35 65.18 64.32 62.51 62.32 60.50 59.49 57.83 56.81 57.70 58.60 59.01 60.51 60.24 60.10 60.18 60.43 60.31 59.78 60.05 60.41 60.33 60.36 59.81 57.53 55.31
54.46 57.08 55.71 55.67 54.36 52.36 51.50 48.86 51.13 53.49 52.15 54.56 57.01 58.50 59.54 60.44 60.78 60.94 61.71 62.37 64.01 65.01 65.19 65.48 65.26 64.10 63.10 61.87 61.30 58.87 58.45 57.32 58.88 58.46 59.97 61.07 60.81 60.43 59.85 60.04 59.85 59.96 60.36 61.02 60.71 60.37 60.51 58.37 58.51
57.80 55.33 55.02 54.96 53.02 47.03 50.45 48.51 48.99 50.25 51.65 53.55 55.61 56.88 58.36 59.94 61.02 61.68 62.51 62.85 63.23 64.51 64.67 64.11 64.13 63.42 62.93 61.58 60.63 60.25 59.44 59.16 58.60 58.80 58.45 58.33 57.90 58.39 59.57 59.76 59.84 61.02 61.28 60.69 60.44 60.78 60.52 60.47 59.22
56.14 53.70 46.80 45.57 45.54 44.50 50.41 47.69 48.79 52.15 54.26 54.91 54.99 56.00 57.49 59.43 59.46 60.13 60.60 60.29 61.47 61.90 62.15 62.46 62.37 62.03 61.92 60.83 60.06 59.84 59.58 60.25 59.56 58.84 58.03 58.49 56.98 56.89 58.50 59.61 60.20 60.11 60.83 60.95 61.16 60.92 60.38 60.18 57.96
54.17 52.95 46.25 40.17 41.87 45.32 49.48 45.03 45.05 53.72 56.13 56.60 56.84 56.84 56.44 57.07 58.77 59.30 60.16 59.62 59.46 60.80 61.54 62.11 61.16 61.21 61.16 60.21 59.93 60.11 60.00 58.86 58.69 58.56 58.26 57.95 57.54 57.77 59.23 59.64 60.09 60.23 60.45 60.50 60.95 59.26 59.37 59.67 57.61
53.51 50.22 53.58 48.16 49.43 45.60 48.03 47.81 50.83 53.02 52.10 52.89 53.39 54.60 55.28 56.83 58.07 58.73 59.57 59.25 59.70 60.72 60.63 60.71 59.87 59.47 59.78 59.55 59.05 59.77 59.91 60.07 59.18 59.78 60.13 57.97 59.89 58.18 59.45 59.09 59.26 59.81 60.15 60.10 60.62 58.24 59.18 59.41 59.26
53.63 54.45 48.17 50.06 41.58 39.99 44.84 45.29 45.09 48.53 48.91 51.68 52.57 53.70 55.25 56.44 56.86 57.60 58.13 58.40 58.17 58.32 58.55 59.10 59.87 59.90 60.34 59.87 58.17 57.93 59.70 59.96 59.71 59.86 59.48 59.56 59.04 59.46 59.56 59.08 58.60 59.34 59.51 59.72 59.90 58.79 59.67 59.62 59.51
51.48 52.20 51.30 50.55 47.78 42.36 40.44 44.59 49.69 48.93 50.55 51.24 52.69 54.10 55.19 56.18 56.68 57.05 57.40 57.85 57.71 58.35 59.26 60.10 59.48 58.23 58.46 58.31 58.49 57.43 58.69 59.33 59.73 59.38 59.49 59.58 59.95 59.12 59.07 58.88 58.11 58.29 58.44 58.98 59.11 59.46 58.72 58.75 59.30
52.23 50.04 49.77 46.04 44.57 48.39 44.35 44.09 51.26 52.35 52.51 53.10 53.35 53.55 54.83 56.10 54.77 55.00 54.97 55.00 54.90 55.49 55.34 57.06 59.02 59.01 57.62 57.75 56.87 54.56 56.86 58.63 58.90 57.50 58.65 59.62 59.61 59.31 58.27 59.31 58.79 57.28 58.18 58.11 58.12 58.07 58.42 58.22 58.38
MSLP
1012.50 1011.86 1011.41 1010.87 1009.31 1008.96 1009.71 1011.16 1011.59 1012.21 1012.76 1013.98 1014.54 1014.70 1015.85 1016.88 1017.40 1018.81 1019.76 1019.82 1020.12 1020.48 1020.61 1020.64 1020.93 1020.92 1020.84 1020.92 1020.88 1020.85 1020.85 1020.80 1020.85 1020.86 1020.83 1020.77 1020.50 1020.36 1020.50 1020.21 1020.18 1019.93 1019.74 1019.63 1019.60 1019.63 1019.66 1019.52 1019.49
1011.23 1011.36 1010.71 1009.17 1008.32 1008.84 1011.08 1011.57 1012.12 1012.94 1013.92 1014.41 1014.95 1015.37 1015.87 1017.96 1018.88 1019.08 1019.80 1020.35 1020.53 1020.84 1021.04 1021.20 1021.15 1021.13 1021.20 1021.37 1021.32 1021.23 1021.23 1021.21 1021.26 1021.26 1021.19 1021.00 1020.90 1020.86 1020.70 1020.57 1020.42 1020.27 1020.08 1020.02 1019.86 1019.85 1019.88 1019.82 1019.78
1011.25 1010.89 1008.96 1008.56 1009.34 1009.51 1011.59 1012.87 1013.17 1013.79 1014.37 1014.41 1014.99 1015.66 1016.66 1018.73 1018.77 1019.43 1020.30 1020.36 1020.56 1020.92 1021.26 1021.47 1021.59 1021.51 1021.60 1021.59 1021.69 1021.75 1021.75 1021.72 1021.60 1021.56 1021.44 1021.44 1021.28 1021.12 1020.90 1020.69 1020.52 1020.40 1020.33 1020.22 1020.33 1020.24 1020.16 1020.11 1020.00
1010.53 1009.89 1009.50 1008.96 1010.24 1011.19 1012.28 1013.43 1013.82 1014.07 1014.52 1014.87 1015.04 1016.32 1017.93 1018.77 1018.92 1019.94 1020.63 1020.55 1020.37 1020.86 1021.31 1021.92 1022.06 1022.04 1022.02 1022.11 1022.09 1022.12 1022.10 1021.94 1021.72 1021.76 1021.87 1021.69 1021.57 1021.39 1021.23 1021.10 1020.94 1020.86 1020.72 1020.54 1020.46 1020.46 1020.35 1020.24 1020.18
1010.11 1008.91 1008.75 1009.61 1011.18 1012.86 1013.52 1014.36 1014.34 1014.17 1014.56 1014.88 1015.40 1016.69 1018.40 1019.56 1020.14 1020.65 1020.49 1020.40 1020.48 1020.59 1021.28 1022.14 1022.53 1022.50 1022.47 1022.49 1022.48 1022.39 1022.28 1022.17 1022.00 1022.00 1021.91 1021.85 1021.70 1021.58 1021.57 1021.47 1021.29 1021.22 1021.03 1020.85 1020.66 1020.68 1020.63 1020.49 1020.31
1008.57 1008.83 1009.04 1010.30 1012.05 1013.36 1014.02 1014.50 1014.57 1014.51 1014.95 1015.42 1015.67 1017.30 1019.09 1020.48 1020.55 1020.45 1020.27 1020.38 1020.64 1021.12 1021.68 1022.31 1022.83 1022.85 1022.83 1022.81 1022.70 1022.64 1022.49 1022.46 1022.41 1022.31 1022.18 1022.21 1022.07 1022.04 1021.98 1021.72 1021.65 1021.51 1021.44 1021.22 1020.94 1020.76 1020.62 1020.52 1020.39
1008.24 1008.04 1009.35 1010.72 1012.09 1013.09 1014.20 1014.92 1014.69 1015.06 1015.28 1015.81 1016.25 1017.12 1019.73 1020.66 1020.66 1020.52 1020.44 1020.58 1020.83 1021.19 1021.70 1022.22 1022.41 1022.70 1022.82 1023.02 1022.89 1022.77 1022.67 1022.46 1022.52 1022.68 1022.56 1022.44 1022.34 1022.24 1022.13 1021.96 1021.89 1021.84 1021.62 1021.40 1021.16 1021.09 1020.84 1020.48 1020.29
1008.96 1008.90 1010.01 1010.59 1011.69 1013.21 1014.71 1015.07 1015.58 1015.61 1016.44 1017.14 1017.09 1017.64 1019.89 1021.01 1020.86 1020.87 1020.78 1020.77 1020.87 1021.10 1021.42 1021.79 1022.22 1022.19 1022.10 1022.14 1023.11 1023.07 1022.96 1022.91 1022.72 1022.80 1022.68 1022.50 1022.29 1022.26 1022.32 1021.98 1021.97 1021.94 1021.69 1021.56 1021.40 1021.20 1021.06 1020.65 1020.26
1009.59 1008.50 1009.14 1010.49 1011.63 1013.12 1014.62 1014.96 1016.19 1016.56 1016.64 1017.71 1018.24 1018.20 1020.06 1021.25 1021.04 1021.09 1021.10 1021.50 1022.16 1022.14 1022.20 1022.42 1022.60 1022.63 1022.51 1022.23 1022.67 1022.82 1023.05 1023.03 1022.83 1022.66 1022.80 1022.21 1021.72 1021.80 1021.56 1022.27 1022.37 1022.06 1021.86 1021.67 1021.31 1021.19 1021.01 1020.65 1020.25
1008.95 1008.41 1010.12 1011.26 1012.12 1012.75 1014.24 1014.68 1015.84 1016.24 1016.95 1018.34 1018.95 1019.70 1020.79 1021.32 1021.70 1022.01 1022.40 1022.29 1022.36 1022.58 1022.72 1022.58 1023.02 1022.88 1022.42 1022.49 1022.68 1022.45 1022.53 1022.64 1022.69 1022.64 1022.61 1022.14 1022.41 1022.48 1022.46 1022.13 1022.35 1021.98 1021.65 1021.32 1020.98 1020.99 1020.95 1020.49 1018.83
1009.84 1009.68 1011.29 1012.25 1012.82 1013.43 1014.40 1015.44 1016.26 1016.37 1016.97 1017.93 1019.25 1020.28 1021.29 1021.67 1022.56 1022.79 1022.59 1023.23 1023.59 1023.44 1023.22 1022.70 1022.88 1023.13 1022.76 1022.63 1022.64 1022.36 1022.17 1022.32 1022.68 1022.91 1022.79 1022.61 1022.36 1022.17 1021.91 1021.56 1021.42 1021.48 1021.19 1020.60 1020.42 1020.02 1019.64 1019.16 1019.11
1010.55 1011.54 1012.00 1013.19 1013.97 1014.35 1014.89 1015.86 1016.99 1017.59 1018.49 1018.84 1019.47 1020.50 1021.65 1022.37 1022.92 1023.81 1024.45 1024.60 1024.25 1023.91 1023.34 1023.00 1022.96 1022.76 1023.24 1023.03 1022.98 1022.63 1022.23 1022.24 1022.25 1022.70 1022.91 1022.56 1022.18 1022.19 1022.13 1021.63 1021.52 1021.25 1020.79 1020.76 1020.40 1019.89 1019.94 1019.89 1019.56
1010.94 1012.35 1013.16 1014.12 1014.70 1015.33 1015.93 1016.69 1017.85 1019.07 1019.43 1019.69 1020.52 1021.41 1022.63 1023.36 1024.27 1024.70 1025.09 1025.35 1025.04 1024.13 1023.75 1023.37 1023.50 1023.48 1023.28 1023.32 1023.33 1023.21 1022.73 1022.57 1022.71 1022.66 1022.80 1022.92 1022.57 1022.48 1022.15 1021.98 1021.57 1021.38 1020.93 1020.54 1020.41 1019.97 1019.78 1019.54 1019.32
1011.78 1012.69 1013.69 1014.47 1015.14 1015.83 1016.03 1017.13 1017.60 1019.84 1020.20 1020.56 1021.30 1022.25 1023.11 1023.72 1024.44 1024.87 1025.18 1025.02 1024.82 1024.17 1023.81 1023.85 1023.96 1024.13 1023.82 1023.72 1023.66 1023.52 1023.11 1022.95 1022.78 1022.78 1022.95 1023.00 1022.89 1022.73 1022.18 1021.93 1021.57 1021.37 1021.11 1020.94 1020.62 1020.20 1019.93 1019.28 1018.96
1012.11 1012.63 1013.50 1014.48 1015.15 1015.81 1015.97 1017.13 1018.95 1020.09 1020.68 1021.22 1021.82 1022.65 1023.48 1023.92 1024.37 1024.32 1024.81 1024.68 1024.48 1023.85 1023.82 1023.93 1024.13 1023.93 1023.84 1023.81 1023.70 1023.69 1023.02 1022.69 1022.67 1022.67 1022.95 1023.25 1023.10 1022.69 1022.55 1021.83 1021.51 1021.40 1021.39 1021.11 1020.49 1020.24 1019.61 1019.10 1018.75
1011.06 1011.96 1012.40 1014.01 1015.03 1016.25 1016.44 1017.10 1019.16 1019.83 1020.09 1020.60 1021.65 1022.54 1023.33 1023.90 1023.93 1024.17 1024.23 1024.11 1023.50 1023.57 1023.81 1023.91 1023.87 1023.61 1023.88 1023.85 1023.82 1023.55 1023.08 1022.82 1022.64 1022.57 1022.62 1022.91 1022.90 1022.71 1022.33 1021.52 1021.38 1021.74 1021.20 1020.63 1020.10 1019.84 1019.32 1019.06 1018.83
1010.47 1010.07 1011.81 1013.91 1015.16 1015.70 1015.92 1016.93 1018.53 1019.30 1019.79 1020.15 1020.83 1021.86 1022.77 1023.19 1023.26 1023.17 1023.37 1022.88 1022.92 1023.30 1023.70 1024.00 1023.99 1023.71 1024.01 1023.93 1023.88 1023.57 1023.22 1022.79 1022.71 1022.71 1022.52 1022.70 1022.66 1022.63 1022.45 1021.60 1021.42 1021.63 1020.78 1020.30 1019.89 1019.74 1019.77 1019.07 1018.56
1008.99 1009.59 1011.28 1012.42 1014.77 1015.30 1015.87 1017.21 1018.48 1019.09 1019.54 1019.92 1020.38 1020.97 1021.43 1021.79 1021.81 1021.89 1022.38 1022.48 1022.81 1023.35 1024.13 1024.19 1023.87 1023.78 1023.90 1023.59 1023.03 1022.56 1022.35 1022.44 1022.60 1022.45 1022.33 1022.59 1022.27 1022.32 1022.25 1021.44 1021.30 1021.32 1020.56 1020.30 1020.27 1020.29 1019.70 1019.21 1018.36
1009.40 1009.79 1010.75 1013.01 1014.42 1014.62 1015.65 1017.03 1018.21 1019.00 1019.60 1019.83 1019.95 1020.28 1020.90 1020.90 1020.60 1021.09 1021.71 1022.56 1023.53 1023.83 1024.05 1023.94 1023.61 1023.62 1023.64 1023.04 1022.70 1022.37 1022.20 1022.35 1022.14 1022.04 1022.47 1022.54 1022.26 1022.12 1021.93 1021.17 1020.84 1020.88 1020.65 1020.69 1020.29 1019.71 1019.43 1018.65 1018.12
1009.59 1010.02 1011.16 1013.31 1014.43 1014.78 1015.70 1016.70 1017.97 1018.40 1018.71 1018.98 1018.88 1019.43 1020.11 1019.90 1020.02 1020.45 1021.23 1022.57 1023.00 1023.10 1023.42 1023.34 1023.08 1023.21 1023.39 1022.87 1022.82 1022.91 1022.75 1022.29 1022.14 1022.09 1022.27 1022.09 1022.00 1021.88 1021.63 1021.41 1021.01 1020.86 1020.54 1020.10 1019.83 1019.83 1019.45 1018.79 1018.19
1009.34 1009.99 1011.18 1011.94 1014.01 1014.54 1015.16 1015.75 1016.93 1017.92 1018.25 1018.42 1018.54 1018.61 1018.78 1018.84 1019.12 1019.49 1020.41 1021.06 1021.75 1022.40 1022.64 1022.30 1022.48 1022.70 1023.12 1023.00 1022.73 1022.50 1022.11 1021.80 1021.58 1021.63 1021.53 1021.49 1021.86 1021.69 1021.45 1021.30 1021.08 1020.85 1020.37 1019.44 1019.75 1019.73 1019.42 1018.92 1018.75
1009.47 1010.61 1011.23 1012.25 1013.09 1012.55 1014.67 1014.13 1015.86 1016.92 1017.35 1017.71 1017.90 1018.18 1018.25 1018.34 1018.57 1018.92 1019.36 1019.94 1020.72 1021.33 1021.36 1021.42 1021.63 1022.19 1022.66 1022.77 1022.48 1022.49 1022.17 1021.78 1021.66 1021.59 1021.38 1021.69 1021.44 1021.44 1021.18 1021.07 1020.82 1020.60 1020.01 1019.92 1019.79 1019.46 1019.39 1019.36 1018.82
1010.67 1011.20 1011.39 1011.94 1012.18 1013.20 1013.97 1014.49 1015.34 1016.65 1016.65 1017.10 1017.62 1017.78 1017.73 1017.90 1018.05 1018.34 1018.80 1019.05 1019.62 1020.08 1020.45 1020.72 1021.18 1021.87 1022.18 1022.32 1022.48 1022.22 1021.86 1021.54 1021.54 1021.20 1021.09 1021.26 1021.05 1020.86 1020.70 1020.67 1020.54 1020.25 1020.07 1019.70 1019.34 1019.09 1019.11 1019.09 1019.02
1011.55 1011.67 1011.82 1012.04 1011.85 1011.84 1012.82 1014.33 1014.74 1016.05 1016.84 1016.97 1017.06 1017.11 1017.51 1017.54 1017.76 1018.19 1018.61 1018.90 1019.21 1019.76 1019.96 1020.03 1020.59 1021.31 1021.69 1021.89 1022.03 1022.19 1022.01 1021.80 1021.43 1021.19 1020.86 1020.32 1020.32 1020.13 1019.98 1020.25 1020.13 1019.99 1019.89 1019.45 1018.85 1018.84 1018.80 1018.71 1018.72
1011.73 1011.50 1010.33 1009.95 1010.46 1010.98 1013.54 1014.37 1015.70 1016.72 1017.13 1017.20 1017.50 1017.62 1017.71 1017.88 1018.24 1018.19 1018.12 1018.31 1018.42 1018.33 1018.88 1019.32 1019.80 1020.42 1020.99 1021.37 1021.56 1021.52 1021.53 1021.51 1021.37 1020.99 1020.21 1020.57 1019.80 1019.70 1019.75 1020.05 1019.90 1019.62 1019.39 1019.10 1018.67 1018.56 1018.28 1018.20 1018.20
1011.04 1011.18 1010.90 1010.27 1010.37 1011.18 1013.69 1014.35 1016.80 1017.30 1017.56 1017.80 1018.04 1018.15 1018.45 1018.46 1018.14 1018.18 1018.27 1018.61 1018.62 1018.70 1019.33 1019.18 1019.59 1020.04 1020.37 1020.80 1021.05 1021.06 1021.05 1020.66 1020.65 1020.40 1020.55 1019.90 1019.75 1019.59 1020.01 1019.76 1019.61 1019.43 1019.12 1018.70 1018.40 1018.06 1017.82 1017.92 1017.93
1010.96 1011.63 1012.03 1011.76 1011.68 1012.09 1013.42 1016.03 1017.29 1017.85 1018.51 1018.81 1018.86 1018.89 1018.90 1018.90 1018.87 1018.95 1019.03 1019.40 1019.46 1019.55 1019.61 1019.47 1019.72 1019.82 1020.25 1020.31 1020.66 1020.75 1020.64 1020.62 1020.47 1020.41 1020.56 1019.76 1019.89 1019.50 1019.34 1019.46 1019.33 1019.17 1018.77 1018.38 1018.23 1017.54 1017.59 1017.50 1017.34
1012.31 1012.68 1012.07 1011.51 1011.39 1011.39 1013.30 1015.27 1016.70 1018.06 1018.85 1019.12 1019.23 1019.29 1019.45 1019.52 1019.54 1019.72 1019.80 1020.04 1020.26 1019.91 1019.87 1019.99 1019.94 1019.81 1019.68 1019.92 1020.22 1020.27 1020.11 1020.18 1020.27 1020.04 1019.87 1019.78 1019.84 1019.74 1019.48 1019.13 1019.04 1018.83 1018.48 1018.18 1018.26 1017.57 1016.96 1017.02 1016.88
1012.32 1012.12 1012.86 1013.10 1013.17 1012.67 1013.15 1015.28 1018.19 1019.16 1019.59 1019.52 1019.52 1019.76 1019.69 1019.70 1019.74 1019.72 1019.88 1020.12 1020.31 1019.76 1019.46 1019.33 1019.42 1019.42 1019.32 1019.68 1019.97 1020.04 1019.95 1019.77 1019.77 1019.67 1019.48 1019.54 1019.34 1019.37 1019.26 1018.92 1018.66 1018.51 1018.24 1018.01 1018.12 1017.63 1016.87 1016.56 1016.55
1013.82 1013.82 1013.76 1013.26 1013.11 1013.80 1014.97 1016.78 1019.12 1019.83 1020.01 1020.08 1019.95 1020.13 1020.29 1020.40 1020.25 1020.13 1020.10 1020.02 1020.11 1019.96 1019.83 1019.57 1019.34 1019.14 1019.48 1019.55 1019.93 1019.94 1019.93 1019.71 1019.54 1019.38 1019.20 1019.12 1018.88 1018.72 1018.97 1018.67 1018.45 1018.22 1017.87 1017.94 1017.88 1017.37 1016.82 1016.55 1016.17
Wind_Speed
14 12 4 7 5 4 9 7 8 9 8 5 8 8 12 9 7 8 4 6 12 10 10 13 13 14 15 15 15 15 15 15 15 14 14 14 15 15 14 15 15 15 16 15 14 13 11 9 8
7 4 6 4 3 7 8 8 10 9 9 10 8 7 4 6 6 10 7 12 14 11 11 10 16 17 17 17 17 17 16 16 15 15 13 13 13 13 12 13 13 14 14 15 15 13 11 9 8
4 6 6 2 5 8 11 9 10 9 6 5 5 7 7 3 5 6 10 12 14 15 14 16 19 18 18 18 17 17 16 15 14 14 16 14 14 13 12 13 13 13 13 13 12 11 11 10 8
5 7 4 5 16 11 14 9 8 10 8 1 8 10 10 8 6 8 12 13 15 15 15 17 18 17 17 16 15 14 14 14 13 15 15 15 16 16 15 14 13 12 12 11 11 10 8 8 7
5 5 7 9 12 10 9 4 2 5 5 6 3 8 8 9 14 12 13 13 12 15 15 16 17 15 14 14 13 12 12 12 13 12 12 12 14 15 15 15 15 15 14 13 11 10 8 7 6
6 4 9 8 10 8 4 1 4 4 6 7 13 11 7 11 13 12 13 13 14 14 13 14 16 16 15 14 14 12 10 9 8 9 10 11 12 12 12 12 12 12 13 13 13 13 10 8 6
3 6 12 10 11 7 5 3 3 5 7 7 5 8 7 10 11 11 13 14 13 14 13 11 10 10 14 12 11 11 10 9 9 9 9 10 10 10 10 9 11 11 10 10 11 11 11 10 9
1 8 9 8 5 7 7 4 6 4 6 6 7 6 7 12 11 11 11 12 12 11 11 11 9 9 8 7 10 9 9 8 8 8 8 6 3 4 7 9 13 12 10 10 9 9 10 10 8
4 5 7 8 3 10 12 7 2 3 8 6 4 7 18 13 13 11 10 12 10 8 9 10 9 8 8 8 6 3 5 3 4 4 5 5 6 8 9 9 12 13 12 12 9 9 10 11 13
4 7 8 5 6 8 10 3 7 5 8 6 6 15 19 14 11 12 10 10 10 10 9 9 10 10 9 7 6 5 5 6 6 5 5 4 5 5 8 6 7 10 10 13 9 10 10 14 8
5 9 9 7 5 9 8 8 2 1 2 3 9 16 15 15 11 11 11 8 9 7 7 9 9 10 12 9 6 4 2 3 4 5 5 4 5 5 5 5 5 6 5 6 8 7 6 8 8
7 5 4 8 7 6 5 8 9 7 7 0 9 15 13 12 10 10 8 4 4 6 5 7 10 10 10 8 7 6 5 3 3 5 6 4 5 6 6 5 6 5 5 7 6 5 7 9 10
11 10 10 10 10 10 8 9 10 7 5 9 11 11 10 11 9 10 7 6 5 3 3 7 8 9 9 9 6 5 5 5 5 4 5 6 6 5 5 6 6 6 6 7 7 7 6 7 8
8 13 10 7 8 6 5 8 3 5 4 10 11 11 11 12 10 6 3 3 7 5 3 5 6 5 7 7 7 4 4 3 3 4 6 7 6 5 6 5 5 5 6 7 7 7 8 8 8
13 12 10 5 4 6 2 9 7 5 7 10 9 9 9 10 9 11 8 10 8 6 4 4 1 4 6 6 5 4 4 5 4 3 2 5 5 4 6 5 5 5 6 7 6 7 7 7 8
6 7 7 6 1 4 6 5 6 10 11 9 9 9 10 10 12 10 9 12 11 6 5 3 1 4 4 5 5 4 4 5 4 4 3 3 5 5 7 5 5 7 7 6 6 7 8 8 8
7 6 3 6 2 3 6 6 8 6 6 4 5 9 9 11 13 13 15 9 8 7 5 4 2 3 4 3 5 4 4 5 5 4 4 5 6 7 7 6 5 7 7 7 7 7 9 8 8
7 4 3 1 5 4 5 5 8 6 4 3 5 6 9 13 14 12 12 9 7 5 2 5 5 3 4 4 4 4 3 3 3 4 4 6 6 6 6 7 5 7 6 7 7 8 8 9 8
6 6 3 6 4 1 4 6 3 4 4 6 9 7 4 8 6 10 10 8 5 3 5 9 8 4 5 5 6 7 5 4 4 4 4 6 5 7 6 7 6 5 7 6 6 6 7 7 6
4 4 4 4 4 6 6 5 4 6 5 3 6 7 8 10 6 7 9 10 11 10 8 13 10 6 6 4 4 5 5 5 5 4 5 5 6 7 7 6 7 5 7 6 6 7 6 8 6
7 9 4 8 8 3 5 8 7 8 5 3 2 4 10 7 5 4 8 12 11 10 12 11 9 7 8 4 5 5 7 7 3 3 5 4 6 6 6 7 6 7 8 6 7 6 6 7 8
14 5 6 6 11 3 6 3 6 2 1 0 1 3 7 8 6 5 4 7 10 10 12 9 8 7 7 6 5 4 6 6 6 7 6 6 5 6 6 6 7 7 8 8 6 7 7 6 7
6 2 4 9 12 6 9 8 10 2 4 5 3 1 3 6 7 5 5 5 6 9 9 8 7 8 8 6 6 6 5 5 5 6 7 6 5 5 6 5 7 8 7 7 8 7 5 5 7
7 4 4 6 6 12 8 6 10 3 4 3 4 7 7 6 5 5 5 4 6 5 8 7 8 9 9 7 6 7 7 8 8 8 7 4 4 4 4 5 6 7 7 8 7 6 7 6 5
6 8 8 8 10 2 4 7 10 3 1 5 8 9 8 8 5 7 6 4 5 5 4 6 7 9 9 7 6 7 6 7 9 6 4 6 4 3 2 5 6 6 6 6 6 7 6 4 4
7 7 9 13 12 6 6 1 5 6 5 5 7 10 10 8 8 9 10 9 10 12 11 9 7 8 7 7 7 6 5 5 6 2 5 5 5 4 4 5 6 7 6 6 6 7 5 5 4
5 8 7 11 10 10 7 7 7 8 6 6 6 8 9 11 11 10 10 12 11 12 12 10 7 6 8 8 5 7 6 5 6 5 5 3 3 5 2 5 7 8 6 7 8 6 8 6 6
6 5 7 7 9 7 8 4 7 2 4 5 7 8 8 8 8 9 9 11 11 9 8 8 9 9 9 7 5 7 8 6 5 7 7 5 5 5 7 6 6 8 6 6 8 8 7 6 5
3 3 2 5 6 8 6 7 5 3 4 6 7 7 8 10 11 11 11 12 13 14 14 11 9 9 9 6 7 6 9 7 7 8 9 9 6 6 8 7 4 6 7 5 7 8 6 6 4
5 5 5 7 5 1 7 6 5 2 3 6 10 10 11 13 11 12 12 11 12 13 13 14 12 10 9 8 8 4 8 11 9 6 9 11 11 5 8 8 7 6 6 4 7 6 6 6 7
Wind_Direction
156 175 202 237 212 106 77 84 115 117 109 85 60 50 78 36 5 95 116 97 106 102 114 103 96 90 79 73 69 68 67 64 60 55 53 52 51 50 44 41 37 41 42 46 45 43 36 37 40
158 180 218 253 177 135 79 90 80 77 105 119 94 109 68 69 49 126 114 94 96 92 82 79 78 76 72 66 63 59 56 54 53 49 43 51 50 47 46 41 35 35 39 39 40 44 43 43 38
222 235 272 103 20 90 103 110 105 104 130 166 114 54 58 91 141 88 99 106 95 85 83 80 75 73 69 66 64 62 59 56 55 48 49 50 43 39 38 36 34 30 27 33 35 37 35 33 35
236 188 179 152 112 72 107 97 107 125 109 78 101 92 94 18 95 89 104 104 101 93 88 83 80 78 77 74 69 63 58 54 60 54 51 48 45 40 38 37 35 28 24 22 23 21 26 27 28
223 248 118 119 96 94 83 108 261 118 78 115 148 97 81 73 92 110 105 99 95 96 94 85 75 72 70 67 61 55 51 52 59 58 58 52 51 48 42 35 31 26 18 15 13 10 3 358 2
193 289 146 116 108 115 93 13 159 91 96 98 110 103 77 107 117 118 111 104 97 90 88 89 76 70 68 64 61 57 53 57 50 51 51 51 49 49 45 44 34 31 22 16 11 358 348 343 331
355 115 77 131 121 132 112 40 104 96 120 85 126 106 113 121 115 119 109 110 109 107 105 101 92 98 95 60 52 46 45 50 55 59 61 57 48 41 34 36 30 15 13 10 9 0 351 342 323
348 104 141 120 165 97 113 107 120 100 79 107 333 158 155 136 133 114 121 110 104 96 92 90 70 53 22 63 51 38 43 50 61 55 46 32 104 31 43 350 25 357 354 352 345 344 340 333 314
282 154 111 109 153 120 151 143 109 147 132 81 56 55 117 155 134 129 111 88 81 74 74 66 53 37 19 19 59 211 116 112 140 122 48 271 1 351 333 23 348 341 336 328 323 323 314 306 271
279 81 73 60 78 139 153 136 137 173 144 95 109 109 135 140 132 125 130 134 112 102 91 78 43 24 25 24 11 26 49 44 30 41 20 345 9 4 315 304 315 315 328 308 297 284 280 258 261
37 69 119 98 83 132 128 120 114 209 166 115 154 139 140 141 139 157 120 89 86 89 66 53 67 44 14 22 356 16 56 42 99 62 0 48 328 2 334 322 340 337 347 334 324 310 295 315 301
117 73 83 98 110 126 120 117 89 42 27 169 148 146 140 147 129 83 62 72 105 105 82 57 51 44 42 9 14 2 19 37 25 50 350 357 335 349 343 349 333 332 348 330 330 322 337 290 283
96 95 80 93 90 83 105 69 88 70 37 117 127 119 110 94 93 81 79 355 328 53 66 60 38 40 35 27 14 7 17 27 5 349 28 346 335 350 336 342 326 323 335 336 326 321 321 305 278
105 112 107 93 99 111 111 106 231 82 121 113 119 112 123 124 113 115 143 191 257 224 113 52 53 41 38 31 12 357 29 0 323 334 14 324 330 352 327 325 341 335 338 343 325 329 312 307 297
130 123 129 104 102 118 150 81 79 119 135 130 130 125 124 127 148 172 191 222 248 213 163 108 62 48 33 9 359 341 359 356 334 330 321 326 321 344 316 338 322 339 330 306 314 318 306 299 294
196 184 206 96 192 124 259 77 148 180 178 153 155 150 145 170 176 191 208 228 230 216 204 167 74 35 13 13 344 329 4 329 331 329 314 331 315 318 302 324 334 356 302 314 318 322 315 300 293
194 330 208 151 41 141 251 113 151 180 192 183 180 163 175 186 198 203 214 226 212 209 210 225 275 356 342 11 329 322 347 323 331 315 321 357 309 316 308 306 328 329 311 311 318 325 315 306 290
351 276 146 265 120 173 110 124 155 187 213 228 193 223 200 216 211 209 211 234 209 199 196 250 259 279 304 303 285 338 320 333 303 298 307 301 307 298 295 301 314 299 311 324 342 316 323 297 287
297 295 25 109 141 184 91 141 147 195 239 246 234 211 204 260 232 213 216 202 180 173 227 253 242 237 276 312 332 346 339 335 337 336 328 293 299 289 288 295 308 305 302 317 306 317 322 317 310
252 277 125 130 181 262 178 126 164 164 176 312 304 206 197 218 221 227 215 196 206 215 210 239 231 230 251 283 340 323 312 311 339 302 307 301 302 295 288 316 305 340 304 297 318 330 319 313 339
217 272 150 296 169 194 214 177 163 180 251 267 259 224 214 248 263 256 211 225 229 220 223 242 236 232 240 295 258 242 244 233 266 293 314 4 295 293 294 301 298 302 285 309 324 309 321 317 319
293 355 272 190 207 257 206 338 152 129 82 76 34 213 234 237 238 242 255 239 236 230 235 243 232 226 229 233 269 283 298 300 333 292 311 298 252 284 291 295 306 297 301 311 298 308 309 300 289
20 325 232 215 235 221 164 261 102 128 152 65 72 270 254 246 251 263 295 281 240 238 246 248 238 222 228 231 266 276 273 324 305 301 297 277 248 249 280 295 292 282 284 290 288 305 301 274 283
124 136 182 219 244 242 106 263 106 97 36 68 71 43 18 343 310 283 293 288 302 244 249 254 223 226 220 226 241 251 277 297 310 322 306 279 302 293 281 304 278 286 282 299 299 315 300 291 296
235 223 259 225 201 34 119 235 63 58 92 29 23 19 22 10 11 309 289 302 271 245 266 261 227 220 213 226 255 247 256 293 293 319 339 305 329 334 346 314 289 299 306 297 312 316 303 311 306
234 320 296 302 307 351 143 271 88 42 68 39 34 24 18 360 2 358 7 5 356 353 341 292 254 242 224 225 251 246 240 282 288 303 335 356 350 18 343 305 298 293 305 318 328 310 323 323 301
131 246 10 288 237 260 97 104 151 107 59 49 46 31 25 18 21 18 24 19 8 353 343 333 300 270 244 244 256 265 246 263 298 271 260 293 293 334 339 302 298 295 310 328 333 319 301 320 297
332 27 259 213 283 287 133 204 121 46 21 32 30 20 20 21 21 23 14 7 8 9 345 318 298 284 266 250 260 281 264 246 265 278 268 274 275 278 298 306 302 282 299 315 319 326 356 304 306
252 225 289 302 305 304 309 98 51 31 18 6 12 3 356 350 357 359 359 7 358 348 348 335 317 301 297 270 265 270 285 273 251 265 280 291 253 253 273 291 302 287 284 304 318 302 337 332 352
39 20 327 300 110 13 310 83 104 62 46 351 354 3 4 353 0 350 349 355 352 349 344 331 329 307 285 259 257 255 279 283 273 240 276 275 282 257 259 277 286 288 294 340 298 328 1 9 14